Location: Edmondson
(35.1065°N, 90.3104°W)
Time: 12:58:13
(UTC+00:00)

Tiangong - Visible Passes

Search period start: 13 October 2024 00:00
Search period end: 23 October 2024 00:00
Orbit: 372 x 377 km, 41.5° (Epoch: 12 October)

Date Brightness Start Highest point End Pass type
(mag) Time Alt. Az. Time Alt. Az. Time Alt. Az.
15 Oct 0.1 11:19:15 10° SSW 11:21:46 23° SE 11:24:19 10° E visible
16 Oct 0.8 10:18:03 11° SSE 10:18:46 11° SE 10:19:49 10° ESE visible
17 Oct -1.0 10:50:24 24° SSW 10:51:44 38° SSE 10:54:39 10° ENE visible
18 Oct 1.3 09:50:31 11° E 09:50:31 11° E 09:50:49 10° E visible
18 Oct -2.1 11:22:31 16° WSW 11:24:52 63° NNW 11:27:57 10° ENE visible
19 Oct -0.7 10:22:25 38° E 10:22:25 38° E 10:24:31 10° ENE visible
20 Oct -1.7 10:54:09 41° NW 10:54:31 43° NNW 10:57:30 10° NE visible
21 Oct 1.3 09:53:45 11° ENE 09:53:45 11° ENE 09:53:58 10° ENE visible
21 Oct -0.7 11:25:43 14° WNW 11:27:44 26° N 11:30:24 10° NE visible
22 Oct -0.1 10:25:11 23° NNE 10:25:11 23° NNE 10:26:44 10° NE visible
